Radiation Dose at Monitoring Post of Fukushima Daini Nuclear Power Station
Date,Time,MP-1(microSv/h),MP-2(microSv/h),MP-3(microSv/h),MP-4(microSv/h),MP-5(microSv/h),MP-6(microSv/h),MP-7(microSv/h),Wind Direction,Wind Velocity(m/s),Rain
2016/12/19,00:00,0.385,0.233,0.397,0.370,0.341,0.192,0.165,south-southwest,7.0,No
2016/12/19,00:10,0.382,0.232,0.399,0.371,0.341,0.193,0.164,south-southwest,8.1,No
2016/12/19,00:20,0.383,0.233,0.398,0.370,0.340,0.192,0.164,southwest,7.7,No
2016/12/19,00:30,0.383,0.232,0.400,0.369,0.342,0.191,0.163,southwest,5.3,No
2016/12/19,00:40,0.381,0.233,0.400,0.372,0.341,0.192,0.165,southwest,4.8,No
2016/12/19,00:50,0.383,0.232,0.399,0.371,0.341,0.191,0.165,west-southwest,4.5,No
2016/12/19,01:00,0.383,0.233,0.400,0.371,0.341,0.192,0.164,west-southwest,5.0,No
2016/12/19,01:10,0.382,0.232,0.398,0.372,0.343,0.191,0.164,west-southwest,5.3,No
2016/12/19,01:20,0.382,0.231,0.397,0.370,0.341,0.192,0.165,west-southwest,5.5,No
2016/12/19,01:30,0.384,0.232,0.399,0.371,0.342,0.190,0.164,west-southwest,5.0,No
2016/12/19,01:40,0.383,0.232,0.397,0.371,0.341,0.191,0.164,west-southwest,6.6,No
2016/12/19,01:50,0.383,0.232,0.399,0.370,0.339,0.191,0.165,southwest,5.6,No
2016/12/19,02:00,0.384,0.232,0.399,0.370,0.342,0.191,0.164,west-southwest,5.0,No
2016/12/19,02:10,0.383,0.232,0.398,0.371,0.343,0.192,0.164,west-southwest,5.5,No
2016/12/19,02:20,0.381,0.233,0.399,0.371,0.340,0.192,0.165,west,5.0,No
2016/12/19,02:30,0.383,0.232,0.399,0.370,0.344,0.192,0.165,west,6.0,No
2016/12/19,02:40,0.381,0.231,0.397,0.370,0.339,0.193,0.164,west,4.9,No
2016/12/19,02:50,0.381,0.232,0.400,0.370,0.339,0.191,0.165,west-southwest,4.7,No
2016/12/19,03:00,0.383,0.233,0.398,0.371,0.344,0.192,0.164,west,6.1,No
2016/12/19,03:10,0.385,0.232,0.399,0.370,0.340,0.192,0.165,west-southwest,7.3,No
2016/12/19,03:20,0.382,0.232,0.402,0.371,0.340,0.192,0.164,west,6.2,No
2016/12/19,03:30,0.382,0.232,0.397,0.370,0.342,0.193,0.165,west-southwest,6.3,No
2016/12/19,03:40,0.383,0.233,0.400,0.371,0.341,0.191,0.164,west,6.6,No
2016/12/19,03:50,0.382,0.232,0.399,0.373,0.341,0.191,0.165,west,6.2,No
2016/12/19,04:00,0.382,0.233,0.399,0.370,0.341,0.193,0.164,west-southwest,7.0,No
2016/12/19,04:10,0.384,0.232,0.400,0.370,0.341,0.192,0.165,west,6.7,No
2016/12/19,04:20,0.383,0.233,0.398,0.372,0.343,0.191,0.164,west,7.6,No
2016/12/19,04:30,0.381,0.232,0.397,0.370,0.341,0.192,0.165,west,8.0,No
2016/12/19,04:40,0.382,0.234,0.399,0.370,0.340,0.192,0.164,west,7.6,No
2016/12/19,04:50,0.384,0.232,0.398,0.371,0.340,0.192,0.164,west,6.7,No
2016/12/19,05:00,0.384,0.232,0.399,0.369,0.341,0.192,0.164,west-southwest,5.9,No
2016/12/19,05:10,0.383,0.232,0.399,0.371,0.340,0.191,0.165,west,4.1,No
2016/12/19,05:20,0.383,0.233,0.398,0.372,0.342,0.192,0.165,west,6.1,No
2016/12/19,05:30,0.383,0.233,0.399,0.369,0.341,0.192,0.164,west,6.3,No
2016/12/19,05:40,0.384,0.233,0.398,0.373,0.341,0.192,0.164,west,6.0,No
2016/12/19,05:50,0.382,0.234,0.400,0.370,0.341,0.192,0.164,west,4.8,No
2016/12/19,06:00,0.383,0.232,0.401,0.370,0.340,0.191,0.165,west,4.7,No
2016/12/19,06:10,0.384,0.233,0.400,0.371,0.341,0.192,0.165,west,3.2,No
2016/12/19,06:20,0.382,0.232,0.400,0.371,0.342,0.192,0.164,west,3.1,No
2016/12/19,06:30,0.385,0.232,0.400,0.371,0.341,0.192,0.163,west-southwest,4.2,No
2016/12/19,06:40,0.382,0.232,0.396,0.370,0.343,0.191,0.164,west,5.9,No
2016/12/19,06:50,0.383,0.232,0.400,0.371,0.340,0.193,0.165,west,4.8,No
2016/12/19,07:00,0.384,0.232,0.399,0.372,0.340,0.192,0.164,west,4.6,No
2016/12/19,07:10,0.383,0.232,0.398,0.369,0.343,0.192,0.164,west,5.9,No
2016/12/19,07:20,0.382,0.233,0.401,0.371,0.340,0.192,0.164,west,6.7,No
2016/12/19,07:30,0.384,0.231,0.398,0.372,0.343,0.192,0.164,west,8.2,No
2016/12/19,07:40,0.381,0.232,0.400,0.370,0.340,0.191,0.164,west,7.7,No
2016/12/19,07:50,0.382,0.233,0.399,0.372,0.340,0.192,0.164,west,7.4,No
2016/12/19,08:00,0.383,0.233,0.400,0.371,0.342,0.191,0.163,west-northwest,6.8,No
2016/12/19,08:10,0.382,0.233,0.400,0.370,0.342,0.191,0.164,west-northwest,8.7,No
2016/12/19,08:20,0.383,0.232,0.399,0.371,0.340,0.192,0.164,west-northwest,6.5,No
2016/12/19,08:30,0.381,0.232,0.401,0.370,0.343,0.192,0.163,west-northwest,7.3,No
2016/12/19,08:40,0.380,0.231,0.399,0.371,0.339,0.192,0.164,west-northwest,4.6,No
2016/12/19,08:50,0.384,0.233,0.398,0.371,0.339,0.192,0.164,west,5.6,No
2016/12/19,09:00,0.382,0.233,0.400,0.371,0.340,0.192,0.164,west-northwest,3.3,No
2016/12/19,09:10,0.383,0.233,0.396,0.370,0.340,0.192,0.164,west-northwest,2.1,No
2016/12/19,09:20,0.384,0.233,0.399,0.369,0.344,0.192,0.163,west-northwest,1.9,No
2016/12/19,09:30,0.382,0.232,0.399,0.370,0.340,0.192,0.164,west,2.0,No
2016/12/19,09:40,0.383,0.233,0.399,0.370,0.341,0.191,0.164,west,3.1,No
2016/12/19,09:50,0.380,0.233,0.401,0.371,0.342,0.192,0.164,west,2.6,No
2016/12/19,10:00,0.382,0.231,0.399,0.370,0.340,0.192,0.163,west-northwest,2.0,No
2016/12/19,10:10,0.384,0.232,0.399,0.368,0.341,0.192,0.164,west-northwest,2.5,No
2016/12/19,10:20,0.382,0.232,0.397,0.372,0.339,0.192,0.164,west,3.2,No
2016/12/19,10:30,0.383,0.233,0.399,0.368,0.341,0.191,0.164,west,5.0,No
2016/12/19,10:40,0.382,0.232,0.399,0.371,0.339,0.191,0.165,west,5.2,No
2016/12/19,10:50,0.382,0.233,0.398,0.369,0.340,0.191,0.163,west,3.7,No
2016/12/19,11:00,0.382,0.231,0.400,0.371,0.340,0.192,0.164,west,1.8,No
2016/12/19,11:10,0.382,0.232,0.399,0.370,0.340,0.192,0.163,west-northwest,2.6,No
2016/12/19,11:20,0.384,0.233,0.401,0.369,0.342,0.191,0.163,west,2.4,No
2016/12/19,11:30,0.383,0.232,0.397,0.371,0.339,0.192,0.165,west-northwest,1.6,No
2016/12/19,11:40,0.384,0.232,0.399,0.369,0.343,0.193,0.164,north,1.1,No
2016/12/19,11:50,0.381,0.232,0.397,0.371,0.340,0.192,0.165,north-northwest,1.5,No
2016/12/19,12:00,0.382,0.232,0.400,0.369,0.342,0.192,0.164,west-northwest,1.2,No
2016/12/19,12:10,0.381,0.231,0.399,0.372,0.339,0.191,0.164,west-northwest,1.0,No
2016/12/19,12:20,0.383,0.232,0.399,0.370,0.342,0.193,0.163,north-northwest,0.6,No
2016/12/19,12:30,0.384,0.233,0.399,0.372,0.342,0.192,0.165,west-southwest,0.5,No
2016/12/19,12:40,0.382,0.232,0.399,0.370,0.340,0.192,0.164,northwest,2.5,No
2016/12/19,12:50,0.382,0.232,0.400,0.372,0.342,0.191,0.164,northwest,1.7,No
2016/12/19,13:00,0.381,0.232,0.396,0.371,0.340,0.192,0.165,north-northwest,0.6,No
2016/12/19,13:10,0.382,0.231,0.400,0.372,0.342,0.191,0.164,west-northwest,1.4,No
2016/12/19,13:20,0.382,0.233,0.398,0.373,0.339,0.192,0.165,west,1.8,No
2016/12/19,13:30,0.380,0.232,0.400,0.370,0.341,0.191,0.164,northwest,1.7,No
2016/12/19,13:40,0.384,0.233,0.401,0.372,0.341,0.192,0.164,west-southwest,0.7,No
2016/12/19,13:50,0.382,0.232,0.400,0.370,0.339,0.192,0.163,-,CALM,No
2016/12/19,14:00,0.384,0.233,0.400,0.372,0.343,0.192,0.163,north-northwest,0.7,No
2016/12/19,14:10,0.385,0.233,0.397,0.370,0.342,0.192,0.164,west-northwest,2.0,No
2016/12/19,14:20,0.383,0.232,0.402,0.372,0.342,0.192,0.163,northwest,2.7,No
2016/12/19,14:30,0.383,0.232,0.398,0.370,0.340,0.192,0.164,west-northwest,6.2,No
2016/12/19,14:40,0.381,0.233,0.400,0.370,0.341,0.191,0.164,west-northwest,5.3,No
2016/12/19,14:50,0.384,0.233,0.397,0.370,0.340,0.191,0.164,west-northwest,5.3,No
2016/12/19,15:00,0.382,0.232,0.399,0.371,0.340,0.191,0.164,northwest,2.3,No
2016/12/19,15:10,0.383,0.233,0.399,0.370,0.343,0.191,0.164,west,4.6,No
2016/12/19,15:20,0.384,0.233,0.401,0.370,0.340,0.192,0.164,west-northwest,4.3,No
2016/12/19,15:30,0.381,0.232,0.399,0.371,0.341,0.192,0.164,northwest,4.3,No
2016/12/19,15:40,0.384,0.232,0.400,0.370,0.340,0.191,0.164,west,1.5,No
2016/12/19,15:50,0.382,0.232,0.400,0.372,0.343,0.192,0.162,west-northwest,0.8,No
2016/12/19,16:00,0.382,0.232,0.397,0.371,0.340,0.191,0.164,north-northwest,1.6,No
2016/12/19,16:10,0.384,0.232,0.401,0.372,0.341,0.192,0.165,north-northwest,1.9,No
2016/12/19,16:20,0.383,0.232,0.400,0.371,0.341,0.192,0.164,west,1.2,No
2016/12/19,16:30,0.384,0.232,0.401,0.370,0.340,0.192,0.165,west-northwest,2.2,No
2016/12/19,16:40,0.382,0.231,0.401,0.371,0.343,0.191,0.164,west-northwest,2.6,No
2016/12/19,16:50,0.384,0.233,0.401,0.372,0.341,0.192,0.164,west-northwest,3.9,No
2016/12/19,17:00,0.385,0.233,0.400,0.373,0.342,0.192,0.165,west-northwest,2.2,No
2016/12/19,17:10,0.383,0.233,0.398,0.370,0.344,0.191,0.164,west-northwest,1.2,No
2016/12/19,17:20,0.384,0.233,0.402,0.371,0.340,0.192,0.164,west-northwest,1.0,No
2016/12/19,17:30,0.383,0.234,0.399,0.372,0.344,0.191,0.164,west-northwest,1.8,No
2016/12/19,17:40,0.382,0.232,0.401,0.372,0.342,0.192,0.165,west-northwest,1.1,No
2016/12/19,17:50,0.385,0.232,0.399,0.374,0.343,0.192,0.164,southwest,2.4,No
2016/12/19,18:00,0.382,0.232,0.401,0.371,0.341,0.192,0.165,southwest,3.0,No
2016/12/19,18:10,0.383,0.232,0.401,0.373,0.341,0.191,0.164,west-southwest,2.2,No
2016/12/19,18:20,0.384,0.232,0.399,0.372,0.342,0.191,0.165,west-southwest,2.3,No
2016/12/19,18:30,0.383,0.232,0.404,0.371,0.342,0.193,0.165,west,3.5,No
2016/12/19,18:40,0.383,0.231,0.398,0.372,0.342,0.192,0.166,west,2.5,No
2016/12/19,18:50,0.385,0.232,0.402,0.372,0.341,0.192,0.164,west,2.2,No
2016/12/19,19:00,0.384,0.233,0.399,0.372,0.341,0.191,0.165,west-southwest,1.4,No
2016/12/19,19:10,0.385,0.232,0.401,0.372,0.342,0.192,0.164,west-northwest,1.5,No
2016/12/19,19:20,0.383,0.232,0.400,0.370,0.342,0.193,0.165,west-northwest,2.4,No
2016/12/19,19:30,0.383,0.234,0.400,0.371,0.342,0.192,0.164,west-northwest,2.7,No
2016/12/19,19:40,0.383,0.232,0.400,0.372,0.342,0.192,0.165,west-northwest,3.0,No
2016/12/19,19:50,0.385,0.232,0.402,0.371,0.341,0.192,0.164,west,3.8,No
2016/12/19,20:00,0.383,0.233,0.400,0.374,0.343,0.192,0.165,west-northwest,4.0,No
2016/12/19,20:10,0.386,0.232,0.399,0.371,0.342,0.192,0.165,west,3.1,No
2016/12/19,20:20,0.384,0.232,0.401,0.372,0.341,0.192,0.164,west-northwest,2.2,No
2016/12/19,20:30,0.383,0.232,0.401,0.374,0.344,0.192,0.165,west-northwest,1.4,No
2016/12/19,20:40,0.384,0.232,0.399,0.371,0.342,0.192,0.165,west,0.6,No
2016/12/19,20:50,0.383,0.233,0.402,0.371,0.341,0.192,0.164,-,CALM,No
2016/12/19,21:00,0.385,0.233,0.398,0.372,0.345,0.193,0.165,east,0.6,No
2016/12/19,21:10,0.384,0.232,0.400,0.370,0.343,0.193,0.165,south-southwest,1.1,No
2016/12/19,21:20,0.383,0.233,0.401,0.373,0.342,0.193,0.165,west-southwest,1.7,No
2016/12/19,21:30,0.384,0.233,0.401,0.372,0.344,0.192,0.165,west-southwest,2.2,No
2016/12/19,21:40,0.386,0.232,0.400,0.373,0.341,0.191,0.166,west-southwest,4.0,No
2016/12/19,21:50,0.384,0.233,0.403,0.370,0.342,0.193,0.165,west-southwest,4.9,No
2016/12/19,22:00,0.384,0.233,0.400,0.373,0.343,0.192,0.163,southwest,5.6,No
2016/12/19,22:10,0.384,0.233,0.400,0.371,0.342,0.192,0.165,south-southwest,5.9,No
2016/12/19,22:20,0.383,0.233,0.402,0.371,0.340,0.191,0.164,southwest,6.2,No
2016/12/19,22:30,0.383,0.233,0.401,0.374,0.343,0.193,0.164,south-southwest,5.5,No
2016/12/19,22:40,0.384,0.232,0.401,0.373,0.341,0.193,0.164,south-southwest,4.7,No
2016/12/19,22:50,0.384,0.232,0.400,0.372,0.340,0.192,0.165,south-southwest,4.0,No
2016/12/19,23:00,0.385,0.233,0.403,0.373,0.343,0.193,0.165,south-southwest,3.1,No
2016/12/19,23:10,0.385,0.232,0.400,0.373,0.341,0.192,0.164,southwest,3.6,No
2016/12/19,23:20,0.384,0.232,0.402,0.371,0.343,0.192,0.165,southwest,3.1,No
2016/12/19,23:30,0.383,0.233,0.402,0.373,0.343,0.194,0.165,southwest,2.9,No
2016/12/19,23:40,0.385,0.233,0.399,0.372,0.342,0.193,0.164,west-southwest,2.5,No
2016/12/19,23:50,0.382,0.233,0.401,0.372,0.341,0.193,0.165,west-southwest,2.5,No
